When you browse on this site, cookies collect data to enhance your experience and personalize the content and advertising you see.
Visit our Privacy Policy to learn more. By continuing to use the site, you agree to this use of cookies and data.
  • In Hungary
  • List of Countries
  • For 7 days
  • Water Temperature
  • Weather Map
  • News
  • Weather Widgets
  • user-avatar
    Login

    Hourly Weather Martyanovo

    Today, 15 October, Tuesday

    Time Temperature Precipitation Wind Pressure Humidity
    00:00 +13°C° 0 mm 5 mps 743 mmHg 70%
    01:00 +13°C° 0 mm 5 mps 743 mmHg 72%
    02:00 +12°C° 0 mm 5 mps 743 mmHg 75%
    03:00 +12°C° 0 mm 4 mps 743 mmHg 80%
    04:00 +11°C° 0 mm 4 mps 743 mmHg 85%
    05:00 +11°C° 0 mm 4 mps 743 mmHg 90%
    06:00 +12°C° 0 mm 4 mps 744 mmHg 90%
    07:00 +12°C° 0 mm 4 mps 744 mmHg 90%
    08:00 +13°C° 0 mm 4 mps 745 mmHg 89%
    09:00 +13°C° 0 mm 4 mps 745 mmHg 83%
    10:00 +14°C° 0 mm 3 mps 745 mmHg 76%
    11:00 +16°C° 0 mm 3 mps 745 mmHg 69%
    12:00 +16°C° 0 mm 3 mps 746 mmHg 67%
    13:00 +17°C° 0 mm 3 mps 746 mmHg 64%
    14:00 +17°C° 0 mm 2 mps 746 mmHg 62%
    15:00 +15°C° 0 mm 2 mps 746 mmHg 67%
    16:00 +14°C° 0 mm 2 mps 746 mmHg 73%
    17:00 +13°C° 0 mm 2 mps 746 mmHg 79%
    18:00 +12°C° 0 mm 2 mps 747 mmHg 80%
    19:00 +12°C° 0 mm 2 mps 747 mmHg 82%
    20:00 +10°C° 0 mm 2 mps 748 mmHg 84%
    21:00 +10°C° 0 mm 2 mps 748 mmHg 85%
    22:00 +9°C° 0 mm 2 mps 748 mmHg 86%
    23:00 +9°C° 0 mm 2 mps 749 mmHg 88%

    Tomorrow, 16 October, Wednesday

    Time Temperature Precipitation Wind Pressure Humidity
    00:00 +9°C° 0 mm 2 mps 749 mmHg 89%
    01:00 +8°C° 0 mm 2 mps 749 mmHg 90%
    02:00 +8°C° 0 mm 3 mps 749 mmHg 91%
    03:00 +7°C° 0 mm 3 mps 749 mmHg 91%
    04:00 +7°C° 0 mm 3 mps 749 mmHg 90%
    05:00 +7°C° 0 mm 3 mps 749 mmHg 90%
    06:00 +7°C° 0 mm 3 mps 749 mmHg 87%
    07:00 +7°C° 0 mm 4 mps 750 mmHg 85%
    08:00 +7°C° 0 mm 4 mps 750 mmHg 82%
    09:00 +10°C° 0 mm 4 mps 750 mmHg 79%
    10:00 +11°C° 0 mm 4 mps 750 mmHg 75%
    11:00 +12°C° 0 mm 4 mps 750 mmHg 72%
    12:00 +13°C° 0 mm 4 mps 749 mmHg 71%
    13:00 +13°C° 0 mm 5 mps 749 mmHg 71%
    14:00 +14°C° 0 mm 5 mps 749 mmHg 70%
    15:00 +13°C° 0 mm 4 mps 748 mmHg 74%
    16:00 +12°C° 0 mm 4 mps 748 mmHg 78%
    17:00 +11°C° 0 mm 4 mps 748 mmHg 82%
    18:00 +11°C° 0 mm 4 mps 748 mmHg 82%
    19:00 +9°C° 0 mm 5 mps 748 mmHg 82%
    20:00 +9°C° 0 mm 5 mps 748 mmHg 82%
    21:00 +9°C° 0 mm 5 mps 747 mmHg 82%
    22:00 +9°C° 0 mm 5 mps 747 mmHg 82%
    23:00 +8°C° 0 mm 5 mps 747 mmHg 83%

    Day after tomorrow, 17 October, Thursday

    Time Temperature Precipitation Wind Pressure Humidity
    00:00 +8°C° 0 mm 5 mps 747 mmHg 84%
    01:00 +8°C° 0 mm 5 mps 747 mmHg 86%
    02:00 +8°C° 0 mm 4 mps 746 mmHg 88%
    03:00 +8°C° 0 mm 4 mps 746 mmHg 89%
    04:00 +8°C° 0 mm 4 mps 746 mmHg 91%
    05:00 +8°C° 0 mm 4 mps 746 mmHg 92%
    06:00 +8°C° 0 mm 5 mps 746 mmHg 91%
    07:00 +9°C° 0 mm 5 mps 745 mmHg 89%
    08:00 +10°C° 0 mm 5 mps 745 mmHg 88%
    09:00 +12°C° 0 mm 5 mps 745 mmHg 82%
    10:00 +14°C° 0 mm 4 mps 745 mmHg 77%
    11:00 +15°C° 0 mm 4 mps 745 mmHg 71%
    12:00 +17°C° 0 mm 4 mps 745 mmHg 67%
    13:00 +18°C° 0 mm 4 mps 744 mmHg 63%
    14:00 +19°C° 0 mm 5 mps 744 mmHg 59%
    15:00 +17°C° 0 mm 4 mps 744 mmHg 65%
    16:00 +15°C° 0 mm 4 mps 744 mmHg 70%
    17:00 +13°C° 0 mm 3 mps 743 mmHg 75%
    18:00 +13°C° 0 mm 3 mps 743 mmHg 76%
    19:00 +13°C° 0 mm 3 mps 744 mmHg 76%
    20:00 +12°C° 0 mm 3 mps 744 mmHg 76%
    21:00 +12°C° 0 mm 3 mps 744 mmHg 77%
    22:00 +12°C° 0 mm 3 mps 743 mmHg 78%
    23:00 +11°C° 0 mm 3 mps 743 mmHg 78%

    18 October, Friday

    Time Temperature Precipitation Wind Pressure Humidity
    00:00 +11°C° 0 mm 3 mps 743 mmHg 82%
    01:00 +10°C° 0 mm 3 mps 743 mmHg 86%
    02:00 +10°C° 0 mm 2 mps 743 mmHg 91%
    03:00 +9°C° 0 mm 2 mps 743 mmHg 91%
    04:00 +9°C° 0 mm 2 mps 744 mmHg 91%
    05:00 +9°C° 0 mm 2 mps 744 mmHg 92%
    06:00 +9°C° 0 mm 3 mps 744 mmHg 89%
    07:00 +10°C° 0 mm 3 mps 744 mmHg 87%
    08:00 +10°C° 0 mm 3 mps 744 mmHg 85%
    09:00 +11°C° 0 mm 3 mps 745 mmHg 80%
    10:00 +13°C° 0 mm 3 mps 745 mmHg 75%
    11:00 +15°C° 0 mm 2 mps 745 mmHg 71%
    12:00 +15°C° 0 mm 2 mps 745 mmHg 70%
    13:00 +15°C° 0 mm 2 mps 745 mmHg 68%
    14:00 +16°C° 0 mm 2 mps 745 mmHg 67%
    15:00 +15°C° 0 mm 2 mps 745 mmHg 71%
    16:00 +14°C° 0 mm 2 mps 746 mmHg 76%
    17:00 +13°C° 0 mm 2 mps 746 mmHg 80%
    18:00 +13°C° 0 mm 2 mps 746 mmHg 80%
    19:00 +13°C° 0 mm 2 mps 746 mmHg 80%
    20:00 +13°C° 0 mm 1 mps 747 mmHg 80%
    21:00 +12°C° 0 mm 1 mps 747 mmHg 79%
    22:00 +12°C° 0 mm 1 mps 747 mmHg 78%
    23:00 +12°C° 0 mm 1 mps 747 mmHg 78%

    19 October, Saturday

    Time Temperature Precipitation Wind Pressure Humidity
    00:00 +12°C° 0 mm 1 mps 747 mmHg 78%
    01:00 +12°C° 0 mm 1 mps 747 mmHg 79%
    02:00 +12°C° 0 mm 1 mps 747 mmHg 79%
    03:00 +12°C° 0 mm 1 mps 748 mmHg 80%
    04:00 +11°C° 0 mm 1 mps 748 mmHg 81%
    05:00 +11°C° 0 mm 1 mps 748 mmHg 82%
    06:00 +11°C° 0 mm 1 mps 748 mmHg 81%
    07:00 +12°C° 0 mm 1 mps 749 mmHg 80%
    08:00 +12°C° 0 mm 1 mps 749 mmHg 79%
    09:00 +13°C° 0 mm 1 mps 749 mmHg 74%
    10:00 +14°C° 0 mm 1 mps 749 mmHg 68%
    11:00 +15°C° 0 mm 1 mps 750 mmHg 63%
    12:00 +15°C° 0 mm 1 mps 750 mmHg 61%
    13:00 +16°C° 0 mm 1 mps 750 mmHg 60%
    14:00 +16°C° 0 mm 1 mps 749 mmHg 58%
    15:00 +15°C° 0 mm 1 mps 749 mmHg 62%
    16:00 +14°C° 0 mm 1 mps 749 mmHg 67%
    17:00 +12°C° 0 mm 0 mps 749 mmHg 71%
    18:00 +11°C° 0 mm 0 mps 750 mmHg 73%
    19:00 +11°C° 0 mm 0 mps 750 mmHg 76%
    20:00 +10°C° 0 mm 0 mps 750 mmHg 78%
    21:00 +10°C° 0 mm 0 mps 750 mmHg 80%
    22:00 +9°C° 0 mm 0 mps 750 mmHg 82%
    23:00 +9°C° 0 mm 0 mps 750 mmHg 85%

    20 October, Sunday

    Time Temperature Precipitation Wind Pressure Humidity
    00:00 +10°C° 0 mm 1 mps 750 mmHg 86%
    01:00 +10°C° 0 mm 1 mps 750 mmHg 87%
    02:00 +9°C° 0 mm 1 mps 751 mmHg 88%
    03:00 +9°C° 0 mm 1 mps 751 mmHg 88%
    04:00 +9°C° 0 mm 1 mps 751 mmHg 89%
    05:00 +8°C° 0 mm 0 mps 751 mmHg 89%
    06:00 +9°C° 0 mm 1 mps 751 mmHg 87%
    07:00 +10°C° 0 mm 1 mps 751 mmHg 85%
    08:00 +10°C° 0 mm 1 mps 751 mmHg 83%
    09:00 +11°C° 0 mm 1 mps 751 mmHg 79%
    10:00 +13°C° 0 mm 1 mps 752 mmHg 74%
    11:00 +14°C° 0 mm 2 mps 752 mmHg 70%
    12:00 +14°C° 0 mm 2 mps 752 mmHg 69%
    13:00 +14°C° 0 mm 2 mps 751 mmHg 68%
    14:00 +14°C° 0 mm 2 mps 751 mmHg 67%
    15:00 +13°C° 0 mm 2 mps 751 mmHg 72%
    16:00 +12°C° 0 mm 2 mps 751 mmHg 76%
    17:00 +10°C° 0 mm 2 mps 751 mmHg 81%
    18:00 +10°C° 0 mm 2 mps 751 mmHg 83%
    19:00 +9°C° 0 mm 2 mps 751 mmHg 85%
    20:00 +9°C° 0 mm 2 mps 752 mmHg 88%
    21:00 +8°C° 0 mm 2 mps 752 mmHg 88%
    22:00 +8°C° 0 mm 2 mps 752 mmHg 89%
    23:00 +8°C° 0 mm 2 mps 752 mmHg 90%
    Show more